EW2281 Weather Reports


Display with metric or nautical units.
time (UTC)temp
F
wind
direction
speed
MPH
gust
MPH
rain 1hr
in
rain 24hr
in
rain mn
in
humidity
%
barometer
mb
20260904103654 70 355 0.0 2.0 0.00 0.05 0.00 94 971.1
20260904103154 70 76 0.0 0.0 0.00 0.05 0.00 95 971.0
20260904102652 70 76 0.0 1.0 0.00 0.05 0.00 95 971.0
20260904102150 70 76 0.0 3.0 0.00 0.05 0.00 95 970.9
20260904101649 70 51 0.0 3.0 0.00 0.05 0.00 95 971.1
20260904101623 69 153 0.0 2.0 0.00 0.05 0.00 96 971.0
20260904100644 69 54 0.0 0.0 0.00 0.05 0.00 96 970.9
20260904100144 69 54 0.0 5.0 0.00 0.05 0.00 96 970.7
20260904095904 69 54 0.0 5.0 0.00 0.05 0.00 96 970.7
20260904095137 69 344 0.0 1.0 0.00 0.05 0.00 97 970.7
20260904094851 69 292 0.0 3.0 0.00 0.05 0.00 97 970.7
20260904094125 69 343 0.0 1.0 0.00 0.05 0.00 97 970.7
20260904093619 69 340 1.0 9.0 0.00 0.05 0.00 97 970.7
20260904093113 69 346 1.0 9.0 0.00 0.05 0.00 98 970.8
20260904092607 68 24 0.0 4.0 0.00 0.05 0.00 99 970.7
20260904092101 68 136 0.0 0.0 0.00 0.05 0.00 99 970.7
20260904091555 67 150 0.0 0.0 0.00 0.05 0.00 99 970.8
20260904091049 67 150 0.0 0.0 0.00 0.05 0.00 99 970.8
20260904090811 67 151 0.0 0.0 0.00 0.05 0.00 99 970.8
20260904090036 67 150 0.0 0.0 0.00 0.05 0.00 99 970.7
20260904085532 67 151 0.0 0.0 0.00 0.05 0.00 99 970.7
20260904085025 67 151 0.0 0.0 0.00 0.05 0.00 99 970.6
20260904084943 68 151 0.0 0.0 0.00 0.05 0.00 99 970.6
20260904084608 67 151 0.0 0.0 0.00 0.05 0.00 99 970.6
20260904083508 68 151 0.0 1.0 0.00 0.05 0.00 99 970.6
20260904083001 67 33 0.0 1.0 0.00 0.05 0.00 99 970.5
20260904082711 67 339 0.0 1.0 0.00 0.05 0.00 99 970.5
20260904082207 67 9 0.0 0.0 0.00 0.05 0.00 100 970.4
20260904081442 67 10 0.0 0.0 0.00 0.05 0.00 100 970.3
20260904080936 67 9 0.0 0.0 0.00 0.05 0.00 100 970.2
20260904080431 67 9 0.0 0.0 0.00 0.05 0.00 100 970.2
20260904075927 67 9 0.0 0.0 0.00 0.05 0.00 100 970.1
20260904075428 67 9 0.0 0.0 0.00 0.05 0.00 100 970.2
20260904074928 67 9 0.0 0.0 0.00 0.05 0.00 100 970.1
20260904074428 67 9 0.0 0.0 0.00 0.05 0.00 100 970.1
20260904073927 67 10 0.0 0.0 0.00 0.05 0.00 100 970.1
20260904073643 67 9 0.0 0.0 0.00 0.05 0.00 99 969.9
20260904072922 67 9 0.0 0.0 0.00 0.05 0.00 99 969.9
20260904072651 67 9 0.0 0.0 0.00 0.05 0.00 99 969.8
20260904071922 67 9 0.0 0.0 0.00 0.05 0.00 99 969.7
20260904071421 67 9 0.0 0.0 0.00 0.05 0.00 99 969.8
20260904070919 68 9 0.0 0.0 0.00 0.05 0.00 99 969.9
20260904070418 68 10 0.0 0.0 0.00 0.05 0.00 99 969.8
20260904065915 68 9 0.0 0.0 0.00 0.05 0.00 99 969.7
20260904065415 68 10 0.0 0.0 0.00 0.05 0.00 99 969.7
20260904064914 68 9 0.0 0.0 0.00 0.05 0.00 99 969.6
20260904064633 68 9 0.0 0.0 0.00 0.05 0.00 99 969.6
20260904063912 68 10 0.0 0.0 0.00 0.05 0.00 99 969.5
20260904063413 69 9 0.0 0.0 0.00 0.05 0.00 99 969.6
20260904062910 69 9 0.0 0.0 0.00 0.05 0.00 99 969.7
20260904062410 69 9 0.0 0.0 0.00 0.05 0.00 99 969.7
20260904061905 69 10 0.0 0.0 0.00 0.05 0.00 99 969.6
20260904061400 69 9 0.0 0.0 0.00 0.05 0.00 99 969.5
20260904060900 69 9 0.0 0.0 0.00 0.05 0.00 99 969.5
20260904060358 69 10 0.0 0.0 0.00 0.05 0.00 99 969.3
20260904055859 69 9 0.0 0.0 0.00 0.05 0.00 99 969.3
20260904055357 69 9 0.0 0.0 0.00 0.05 0.00 99 969.3
20260904054859 69 9 0.0 0.0 0.00 0.05 0.00 99 969.4
20260904054356 69 9 0.0 0.0 0.00 0.05 0.00 99 969.6
20260904054116 69 9 0.0 0.0 0.00 0.05 0.00 99 969.6
20260904053625 69 9 0.0 0.0 0.00 0.05 0.00 99 969.7
20260904052852 69 10 0.0 0.0 0.00 0.05 0.00 99 969.8
20260904052350 69 10 0.0 0.0 0.00 0.05 0.00 99 969.9
20260904051850 69 10 0.0 0.0 0.00 0.05 0.00 99 969.9
20260904051350 69 10 0.0 0.0 0.00 0.05 0.00 99 969.9
20260904050850 69 10 0.0 1.0 0.00 0.05 0.00 99 969.9
20260904050351 69 10 0.0 1.0 0.00 0.05 0.00 98 969.9
20260904045851 69 9 0.0 0.0 0.00 0.05 0.00 98 969.9
20260904045606 69 10 0.0 0.0 0.00 0.05 0.00 98 969.9
20260904044849 69 10 0.0 0.0 0.00 0.05 0.00 98 969.8
20260904044347 69 10 0.0 0.0 0.00 0.05 0.00 98 969.7
20260904044105 69 10 0.0 0.0 0.00 0.05 0.00 98 969.8
20260904043345 69 10 0.0 0.0 0.00 0.05 0.00 98 969.7
20260904042843 69 348 0.0 1.0 0.00 0.05 0.00 98 969.5
20260904042611 69 348 0.0 1.0 0.00 0.05 0.00 98 969.4
20260904041841 70 342 0.0 1.0 0.00 0.05 0.00 97 969.3
20260904041343 70 280 0.0 0.0 0.01 0.05 0.00 97 969.3
20260904040842 70 280 0.0 0.0 0.01 0.05 0.00 97 969.3
20260904040343 70 275 0.0 0.0 0.01 0.05 0.00 97 969.3
20260904035841 70 275 0.0 1.0 0.02 0.05 2.85 97 969.3
20260904035820 70 273 0.0 1.0 0.02 0.05 2.85 97 969.1
20260904034837 70 182 0.0 0.0 0.02 0.05 2.85 97 969.1
20260904034341 70 172 0.0 0.0 0.03 0.05 2.85 97 969.0
20260904033836 70 153 0.0 0.0 0.03 0.05 2.85 97 969.0
20260904033336 70 258 0.0 0.0 0.03 0.05 2.85 97 969.3
20260904033102 71 258 0.0 1.0 0.03 0.05 2.85 96 969.4
20260904032335 71 258 0.0 2.0 0.03 0.05 2.85 96 969.5
20260904031833 71 303 0.0 4.0 0.03 0.05 2.85 96 969.7
20260904031333 71 162 0.0 4.0 0.02 0.04 2.84 96 969.7
20260904030833 71 270 0.0 3.0 0.02 0.04 2.84 96 969.9
20260904030331 71 202 0.0 1.0 0.02 0.04 2.84 95 970.1
20260904025833 72 184 0.0 1.0 0.01 0.03 2.83 95 970.3
20260904025326 72 227 0.0 2.0 0.01 0.03 2.83 94 970.6
20260904024823 73 213 0.0 2.0 0.00 0.02 2.82 93 970.8
20260904024325 73 274 0.0 0.0 0.00 0.02 2.82 93 971.1
20260904023822 73 211 0.0 0.0 0.00 0.02 2.82 92 971.2
20260904023321 74 209 0.0 3.0 0.00 0.02 2.82 92 971.2
20260904022820 74 288 0.0 3.0 0.00 0.02 2.82 91 971.3
20260904022318 74 314 0.0 4.0 0.00 0.02 2.82 91 971.4
20260904021817 75 219 0.0 4.0 0.00 0.02 2.82 91 971.5
20260904021319 75 296 0.0 3.0 0.00 0.02 2.82 92 971.7
20260904021037 75 212 0.0 6.0 0.00 0.02 2.82 92 971.8
20260904020318 76 212 1.0 6.0 0.00 0.02 2.82 92 971.6
20260904015815 76 265 1.0 6.0 0.00 0.02 2.82 93 971.4
20260904015536 76 46 1.0 6.0 0.00 0.02 2.82 94 971.3
20260904014817 75 26 1.0 6.0 0.00 0.02 2.82 96 971.0
20260904014315 75 196 0.0 1.0 0.00 0.02 2.82 98 970.9
20260904014046 75 295 0.0 2.0 0.00 0.02 2.82 98 970.9
20260904013537 75 295 0.0 2.0 0.00 0.02 2.82 98 970.6
20260904012817 75 300 0.0 2.0 0.00 0.02 2.82 98 970.6
20260904012317 75 298 0.0 1.0 0.00 0.02 2.82 98 970.5
20260904011817 75 312 0.0 0.0 0.00 0.02 2.82 98 970.4
20260904011316 75 312 0.0 0.0 0.00 0.02 2.82 98 970.5
20260904010817 75 312 0.0 0.0 0.00 0.02 2.82 98 970.4
20260904010316 75 309 0.0 0.0 0.00 0.02 2.82 98 970.3
20260904005817 76 309 0.0 0.0 0.00 0.02 2.82 97 970.2
20260904005540 76 112 0.0 0.0 0.00 0.02 2.82 97 970.0
20260904004815 76 131 0.0 0.0 0.00 0.02 2.82 97 970.0
20260904004316 76 131 0.0 0.0 0.00 0.02 2.82 96 969.9
20260904003817 76 131 0.0 0.0 0.01 0.02 2.82 96 969.9
20260904003316 76 61 0.0 1.0 0.01 0.02 2.82 96 970.0
20260904002815 76 300 0.0 1.0 0.02 0.02 2.82 96 970.3
20260904002317 76 128 0.0 1.0 0.02 0.02 2.82 96 970.4
20260904001816 76 129 0.0 1.0 0.02 0.02 2.82 96 970.4
20260904001316 76 128 0.0 1.0 0.02 0.02 2.82 96 970.5
20260904000817 76 289 0.0 1.0 0.02 0.02 2.82 96 970.7
20260904000318 77 230 0.0 0.0 0.02 0.02 2.82 95 970.7
20260903235815 77 230 0.0 0.0 0.02 0.02 2.82 95 970.8
20260903235538 77 202 0.0 0.0 0.02 0.02 2.82 94 970.6
20260903234817 77 203 0.0 0.0 0.02 0.02 2.82 94 970.6
20260903234315 78 307 0.0 0.0 0.02 0.02 2.82 93 970.7
20260903233817 78 307 0.0 0.0 0.01 0.01 2.81 92 970.5
20260903233317 78 307 0.0 0.0 0.01 0.01 2.81 92 970.4
20260903232815 79 308 0.0 0.0 0.00 0.00 2.80 91 970.4
20260903232311 79 308 0.0 0.0 0.00 0.00 2.80 90 970.0
20260903231811 79 308 0.0 0.0 0.00 0.00 2.80 89 970.1
20260903231309 79 308 0.0 0.0 0.00 0.00 2.80 88 970.1
20260903230806 80 308 0.0 0.0 0.00 0.00 2.80 88 970.1
20260903230305 80 308 0.0 0.0 0.00 0.00 2.80 88 970.2
20260903225803 80 308 0.0 0.0 0.00 0.00 2.80 88 970.2
20260903225306 80 308 0.0 0.0 0.00 0.00 2.80 87 970.1
20260903225026 80 308 0.0 0.0 0.00 0.00 2.80 88 970.1
20260903224530 80 278 0.0 0.0 0.00 0.00 2.80 88 970.1
20260903223759 80 271 0.0 0.0 0.00 0.00 2.80 88 970.0
20260903223253 81 271 0.0 0.0 0.00 0.00 2.80 87 969.9
20260903222747 81 271 0.0 0.0 0.00 0.00 2.80 88 970.1
20260903222240 81 271 0.0 0.0 0.00 0.00 2.80 87 970.0
20260903221735 81 271 0.0 0.0 0.00 0.00 2.80 87 970.1
20260903221228 82 271 0.0 0.0 0.00 0.00 2.80 86 969.9
20260903220723 82 296 0.0 0.0 0.00 0.00 2.80 86 970.0
20260903220217 82 296 0.0 0.0 0.00 0.00 2.80 85 969.8
20260903215932 83 296 0.0 0.0 0.00 0.00 2.80 85 969.5
20260903215205 83 296 0.0 0.0 0.00 0.00 2.80 84 969.5
20260903214659 83 296 0.0 0.0 0.00 0.00 2.80 83 969.1
20260903214416 83 296 0.0 3.0 0.00 0.00 2.80 83 968.9
20260903213647 83 296 0.0 3.0 0.00 0.00 2.80 83 969.1
20260903213140 84 309 0.0 3.0 0.00 0.00 2.80 83 969.2
20260903212634 84 318 0.0 3.0 0.00 0.00 2.80 82 969.2
20260903212129 84 299 0.0 1.0 0.00 0.00 2.80 81 969.2
20260903211623 85 290 0.0 1.0 0.00 0.00 2.80 81 969.1
20260903211117 85 285 0.0 2.0 0.00 0.00 2.80 80 969.1
20260903210835 85 285 1.0 4.0 0.00 0.00 2.80 80 969.3
20260903210105 85 291 2.0 7.0 0.00 0.00 2.80 78 969.3
20260903205559 85 295 1.0 5.0 0.00 0.00 2.80 77 969.2
20260903205053 85 210 0.0 5.0 0.00 0.00 2.80 77 969.3
20260903204547 85 9 0.0 2.0 0.00 0.00 2.80 78 969.2
20260903204041 85 270 0.0 4.0 0.00 0.00 2.80 77 968.9
20260903203800 85 277 1.0 7.0 0.00 0.00 2.80 77 968.9
20260903203259 86 295 1.0 7.0 0.00 0.00 2.80 76 968.9
20260903202523 86 300 1.0 2.0 0.00 0.00 2.80 76 968.9
20260903202017 86 288 1.0 3.0 0.00 0.00 2.80 77 969.1
20260903201510 86 252 1.0 5.0 0.00 0.00 2.80 74 969.2
20260903201005 87 290 1.0 5.0 0.00 0.00 2.80 74 969.3
20260903200458 87 221 0.0 2.0 0.00 0.00 2.80 74 969.3
20260903195953 86 296 1.0 5.0 0.00 0.00 2.80 74 969.3
20260903195710 86 233 1.0 5.0 0.00 0.00 2.80 74 969.4
20260903195206 86 260 1.0 5.0 0.00 0.00 2.80 74 969.4
20260903194435 86 307 2.0 7.0 0.00 0.00 2.80 73 969.4
20260903194145 87 288 1.0 7.0 0.00 0.00 2.80 71 969.5
20260903193423 87 318 0.0 3.0 0.00 0.00 2.80 72 969.5
20260903193136 87 298 0.0 3.0 0.00 0.00 2.80 73 969.6
20260903192411 87 268 0.0 1.0 0.00 0.00 2.80 73 969.7
20260903192125 87 201 0.0 3.0 0.00 0.00 2.80 74 969.7
20260903191622 87 182 0.0 3.0 0.00 0.00 2.80 73 969.8
20260903191115 86 298 0.0 4.0 0.00 0.00 2.80 74 969.8
20260903190346 85 211 0.0 4.0 0.00 0.00 2.80 75 970.0
20260903185841 85 302 0.0 0.0 0.00 0.00 2.80 75 970.1
20260903185335 85 217 0.0 3.0 0.00 0.00 2.80 74 970.1
20260903185048 85 217 1.0 3.0 0.00 0.00 2.80 75 970.1
20260903184322 86 302 1.0 4.0 0.00 0.00 2.80 73 970.2
20260903183817 86 255 1.0 4.0 0.00 0.00 2.80 73 970.3
20260903183311 86 247 1.0 4.0 0.00 0.00 2.80 72 970.3
20260903183023 86 181 0.0 4.0 0.00 0.00 2.80 75 970.3
20260903182259 85 170 0.0 4.0 0.00 0.00 2.80 75 970.4
20260903181753 85 162 1.0 3.0 0.00 0.00 2.80 75 970.4
20260903181247 85 255 1.0 4.0 0.00 0.00 2.80 75 970.5
20260903181003 85 278 1.0 4.0 0.00 0.00 2.80 74 970.6
20260903180235 85 309 1.0 4.0 0.00 0.00 2.80 74 970.7
20260903175729 85 207 0.0 4.0 0.00 0.00 2.80 75 970.8
20260903175224 85 306 0.0 4.0 0.00 0.00 2.80 77 970.7
20260903174716 84 197 1.0 4.0 0.00 0.00 2.80 76 970.8
20260903174210 84 295 1.0 6.0 0.00 0.00 2.80 73 971.0
20260903173705 84 325 1.0 6.0 0.00 0.00 2.80 76 971.0
20260903173158 84 216 1.0 4.0 0.00 0.00 2.80 78 971.0
20260903172653 84 318 0.0 3.0 0.00 0.00 2.80 78 971.1
20260903172147 84 335 0.0 3.0 0.00 0.00 2.80 78 971.1
20260903171912 84 211 0.0 2.0 0.00 0.00 2.80 77 971.1
20260903171141 83 212 0.0 3.0 0.00 0.00 2.80 77 971.1
20260903170641 83 212 0.0 4.0 0.00 0.00 2.80 79 971.3
20260903170141 82 317 1.0 4.0 0.00 0.00 2.80 80 971.3
20260903170118 82 208 1.0 5.0 0.00 0.00 2.80 82 971.4
20260903165401 81 291 1.0 6.0 0.00 0.00 2.80 82 971.4
20260903164639 81 342 1.0 6.0 0.00 0.00 2.80 83 971.3
20260903164137 80 304 0.0 5.0 0.00 0.00 2.80 82 971.5
20260903163638 80 223 0.0 7.0 0.00 0.00 2.80 83 971.6
20260903163138 80 213 1.0 7.0 0.00 0.00 2.80 85 971.6
20260903162636 80 200 1.0 4.0 0.00 0.00 2.80 85 971.7
20260903162134 79 224 1.0 6.0 0.00 0.00 2.80 89 971.8
20260903161633 78 175 1.0 6.0 0.00 0.00 2.80 93 971.8
20260903161136 78 303 1.0 6.0 0.00 0.00 2.80 93 971.9
20260903160634 77 267 1.0 6.0 0.00 0.00 2.80 95 972.0
20260903160353 77 251 1.0 5.0 0.00 0.00 2.80 94 972.1
20260903155632 76 217 1.0 8.0 0.00 0.00 2.80 95 972.2
20260903155129 76 311 1.0 8.0 0.00 0.00 2.80 96 972.2
20260903154630 75 291 1.0 6.0 0.00 0.00 2.80 98 972.3
20260903154129 75 288 0.0 3.0 0.00 0.00 2.80 99 972.4
20260903153628 75 262 0.0 2.0 0.00 0.00 2.80 100 972.4
20260903153129 75 207 0.0 5.0 0.00 0.00 2.80 100 972.5
20260903152628 74 288 0.0 5.0 0.00 0.00 2.80 100 972.5
20260903152125 74 162 0.0 5.0 0.00 0.00 2.80 100 972.5
20260903151625 73 230 1.0 5.0 0.00 0.00 2.80 100 972.3
20260903151346 73 261 1.0 5.0 0.00 0.00 2.80 100 972.3
20260903150624 73 294 1.0 5.0 0.00 0.00 2.80 100 972.3
20260903150122 72 323 0.0 4.0 0.00 0.00 2.80 100 972.4
20260903145844 72 219 0.0 4.0 0.00 0.00 2.80 100 972.3
20260903145124 72 209 0.0 4.0 0.00 0.00 2.80 100 972.2
20260903144841 71 13 0.0 5.0 0.00 0.00 2.80 100 972.3
20260903144123 71 288 1.0 5.0 0.00 0.00 2.80 100 972.3
20260903143622 71 273 0.0 4.0 0.00 0.00 2.80 100 972.2
20260903143124 71 228 0.0 4.0 0.00 0.00 2.80 100 972.0
20260903142623 71 155 0.0 2.0 0.00 0.00 2.80 100 971.9
20260903142124 71 150 0.0 2.0 0.00 0.00 2.80 100 971.9
20260903141856 71 182 0.0 2.0 0.00 0.00 2.80 100 971.9
20260903141126 70 238 0.0 3.0 0.00 0.00 2.80 100 971.9
20260903140627 70 269 0.0 3.0 0.00 0.00 2.80 100 971.9
20260903140121 70 314 0.0 0.0 0.00 0.00 2.80 100 971.9